Flag for USA

Past Weather in Cocoa Beach, Florida, USA — Yesterday and Last 2 Weeks

Now
84 °F

Scattered clouds.


Feels Like: 88 °F
Forecast: 89 / 78 °F
Wind: 7 mph from South

Location: Cocoa / Patrick Air Force Base

Current Time: Jul 3, 2020 at 8:22:35 pm

Latest Report: Jul 3, 2020 at 7:56 pm


Visibility: 10 mi

Pressure: 29.90 "Hg

Humidity: 64%

Dew Point: 70 °F

Location of Cocoa BeachLocation

Past Weather in Cocoa Beach — Graph

°F

Cocoa Beach Temperature Yesterday

Maximum temperature yesterday: 93 °F (at 2:56 pm)
Minimum temperature yesterday: 77 °F (at 2:56 am)
Average temperature yesterday: 83 °F

High & Low Weather Summary for the Past Weeks

 TemperatureHumidityPressure
High95 °F (Jun 30, 1:56 pm)89% (Jun 19, 3:27 pm)30.21 "Hg (Jun 19, 3:27 pm)
Low75 °F (Jun 20, 1:56 am)45% (Jul 2, 2:56 pm)29.87 "Hg (Jul 3, 5:56 pm)
Average83 °F74%30.05 "Hg
* Reported Jun 18 6:56 pm — Jul 3 6:56 pm, Cocoa Beach. Weather by CustomWeather, © 2020

Note: Actual official high and low records may vary slightly from our data, if they occured in-between our weather recording intervals... More about our weather records

Cocoa Beach Weather History for the Previous 24 Hours

Scroll right to see more
 ConditionsComfort  
Time TempWeatherWind HumidityBarometerVisibility
6:56 pm
Fri, Jul 3
86 °FSunny.8 mph63%29.89 "Hg10 mi
5:56 pm85 °FSunny.5 mph64%29.87 "Hg10 mi
4:56 pm85 °FSunny.6 mph67%29.90 "Hg10 mi
3:56 pm85 °FThundershowers. Sunny.7 mph66%29.93 "Hg10 mi
3:11 pm84 °FThundershowers. Scattered clouds.No wind66%29.94 "Hg10 mi
2:56 pm85 °FThunderstorms. Broken clouds.10 mph67%29.93 "Hg8 mi
1:56 pm89 °FBroken clouds.12 mph63%29.94 "Hg10 mi
12:56 pm90 °FScattered clouds.5 mph48%29.96 "Hg10 mi
11:56 am90 °FSunny.6 mph50%29.97 "Hg10 mi
10:56 am88 °FSunny.8 mph61%29.97 "Hg10 mi
9:56 am85 °FSunny.7 mph70%29.97 "Hg10 mi
8:56 am84 °FSunny.8 mph74%29.97 "Hg10 mi
7:56 am82 °FSunny.9 mph79%29.96 "Hg10 mi
6:56 am79 °FSunny.8 mph82%29.94 "Hg10 mi
5:56 am80 °FClear.8 mph82%29.93 "Hg10 mi
4:56 am80 °FClear.10 mph81%29.93 "Hg10 mi
3:56 am80 °FClear.10 mph81%29.92 "Hg10 mi
2:56 am80 °FClear.9 mph79%29.93 "Hg10 mi
1:56 am81 °FClear.13 mph76%29.94 "Hg10 mi
12:56 am82 °FClear.12 mph74%29.95 "Hg10 mi
11:56 pm
Thu, Jul 2
82 °FClear.9 mph75%29.95 "Hg10 mi
10:56 pm82 °FClear.8 mph77%29.96 "Hg10 mi
9:56 pm82 °FClear.7 mph76%29.95 "Hg10 mi
8:56 pm83 °FClear.8 mph71%29.95 "Hg10 mi
Weather by CustomWeather, © 2020

See weather overview